User: anonymous
Location: Plum
(40.5000°N, 79.7500°W)
Time: 12:23:35
(UTC-04:00)
Language:

MOZ.5/SAFIR/RUBIN 5/SL-8 - Orbit

View from above orbital plane
View from above orbital plane
View from above satellite
View from above satellite

Ground track
Ground track

The orbit data is extracted from the following two-line orbital elements,

1 28898U 05043G   14208.47408502  .00000154  00000-0  41627-4 0  8771
2 28898 097.8374 035.8222 0018709 268.1299 147.6952 14.59499391465800
Epoch (UTC): 27 July 2014 11:22:40
Eccentricity: 0.0018709
inclination: 97.8374°
perigee height: 681 km
apogee height: 708 km
right ascension of ascending node: 35.8222°
argument of perigee: 268.1299°
revolutions per day: 14.59499391
mean anomaly at epoch: 147.6952°
orbit number at epoch: 46580

The dashed part of the orbit path shows where the satellite is in the earth's shadow,  

DLR